Location: Caltech
(34.1382°N, 118.1253°W)
Time: 15:01:30
(UTC-07:00)

Iridium 49 - Visible Passes

Search period start: 23 July 2014 00:00
Search period end: 02 August 2014 00:00
Orbit: 776 x 779 km, 86.4° (Epoch: 23 July)

Date Brightness Start Highest point End Pass type
(mag) Time Alt. Az. Time Alt. Az. Time Alt. Az.
23 Jul 8.0 02:28:52 20° E 02:29:47 21° E 02:33:35 10° NE visible
23 Jul 6.7 04:09:22 34° WSW 04:10:12 36° W 04:14:58 10° NNW visible
24 Jul 8.7 01:56:01 10° E 01:56:37 10° ENE 01:57:12 10° ENE visible
24 Jul 5.9 03:36:12 67° WSW 03:36:36 70° W 03:41:48 10° N visible
25 Jul 6.3 03:03:03 60° E 03:03:07 60° E 03:08:14 10° N visible
25 Jul 7.9 04:43:32 12° W 04:44:12 12° WNW 04:46:19 10° NW visible
26 Jul 7.4 02:29:52 31° E 02:29:52 31° E 02:34:15 10° NNE visible
26 Jul 7.2 04:10:21 24° W 04:10:24 24° W 04:14:35 10° NNW visible
27 Jul 8.3 01:56:40 16° ENE 01:56:40 16° ENE 01:59:34 10° NE visible
27 Jul 6.5 03:37:09 45° WNW 03:37:09 45° WNW 03:41:44 10° NNW visible
28 Jul 6.2 03:03:57 66° N 03:03:57 66° N 03:08:24 10° N visible
29 Jul 7.1 02:30:44 40° NE 02:30:44 40° NE 02:34:41 10° NNE visible
29 Jul 7.8 04:11:13 16° WNW 04:11:13 16° WNW 04:13:52 10° NW visible
30 Jul 8.0 01:57:31 22° ENE 01:57:31 22° ENE 02:00:29 10° NNE visible
30 Jul 7.2 03:38:00 28° WNW 03:38:00 28° WNW 03:41:30 10° NNW visible
31 Jul 8.7 01:24:17 11° ENE 01:24:17 11° ENE 01:25:07 10° ENE visible
31 Jul 6.8 03:04:46 43° NNW 03:04:46 43° NNW 03:08:26 10° N visible
01 Aug 7.1 02:31:31 41° NNE 02:31:31 41° NNE 02:34:57 10° N visible
